Weather History for KFWZ - June, 2013

Change the Weather History Date:

Monday, June 24, 2013

  Actual Average (KLND) Record (KLND)
Temperature  
Mean Temperature 61 °F 66 °F  
Max Temperature 69 °F 81 °F 99 °F (1988)
Min Temperature 53 °F 51 °F 34 °F (1906)
Degree Days  
Heating Degree Days 4 2  
Month to date heating degree days 115  
Since 1 June heating degree days 115  
Since 1 July heating degree days 7737  
Cooling Degree Days 0 3  
Month to date cooling degree days 42  
Year to date cooling degree days 47  
Since 1 June cooling degree days 42  
Growing Degree Days 11 (Base 50)    
Moisture  
Dew Point 23 °F    
Average Humidity 23    
Maximum Humidity 47    
Minimum Humidity 14    
Precipitation  
Precipitation 0.00 in 0.03 in 0.98 in (1958)
Month to date precipitation 1.13  
Year to date precipitation 7.35  
Snow  
Snow 0.00 in 0.00 in - ()
Month to date snowfall 0.1  
Since 1 June snowfall 0.1  
Since 1 July snowfall 91.4  
Snow Depth -    
Sea Level Pressure  
Sea Level Pressure 29.94 in    
Wind  
Wind Speed 9 mph (SW)    
Max Wind Speed 24 mph    
Max Gust Speed 36 mph    
Visibility 10 miles    
Events      
T = Trace of Precipitation, MM = Missing Value Source: NWS Daily Summary

Daily Weather History Graph

Daily Weather History Graph

Search for Another Location

Airport or City:

Trip Planner

Search our weather history database for the weather conditions in past years. The results will help you decide how hot, cold, wet, or windy it might be!

Date:

Astronomy

Jun. 24, 2013 Rise Set
Actual Time 5:38 AM MDT 8:56 PM MDT
Civil Twilight 5:03 AM MDT 9:31 PM MDT
Nautical Twilight 4:18 AM MDT 10:16 PM MDT
Astronomical Twilight 3:23 AM MDT 11:11 PM MDT
Moon 9:58 PM MDT (6/24) 7:12 AM MDT (6/24)
Length of Visible Light 16h 27m
Length of Day
15h 17m
Full, 97% of the Moon is Illuminated
Jun 24
Full
Jun 29
Last Quarter
Jul 8
New
Jul 15
First Quarter
Jul 22
Full

Hourly Weather History & Observations

Time (MDT) Temp. Dew Point Humidity Pressure Visibility Wind Dir Wind Speed Gust Speed Precip Events Conditions
12:15 AM 59.0 °F 23.0 °F 25% 29.98 in 10.0 mi West 5.8 mph - N/A   Scattered Clouds
12:35 AM 57.2 °F 23.0 °F 27% 29.98 in 10.0 mi West 5.8 mph - N/A   Mostly Cloudy
12:55 AM 59.0 °F 21.2 °F 23% 29.98 in 10.0 mi West 6.9 mph - N/A   Scattered Clouds
1:15 AM 57.2 °F 21.2 °F 25% 29.96 in 10.0 mi West 8.1 mph - N/A   Clear
1:35 AM 59.0 °F 21.2 °F 23% 29.96 in 10.0 mi West 8.1 mph - N/A   Clear
1:55 AM 59.0 °F 23.0 °F 25% 29.96 in 10.0 mi WNW 6.9 mph - N/A   Clear
2:15 AM 59.0 °F 23.0 °F 25% 29.96 in 10.0 mi West 4.6 mph - N/A   Clear
2:35 AM 59.0 °F 23.0 °F 25% 29.95 in 10.0 mi West 4.6 mph - N/A   Clear
2:55 AM 57.2 °F 23.0 °F 27% 29.95 in 10.0 mi West 5.8 mph - N/A   Clear
3:15 AM 57.2 °F 23.0 °F 27% 29.94 in 10.0 mi West 5.8 mph - N/A   Clear
3:35 AM 59.0 °F 23.0 °F 25% 29.94 in 10.0 mi West 4.6 mph - N/A   Clear
3:55 AM 59.0 °F 23.0 °F 25% 29.94 in 10.0 mi West 4.6 mph - N/A   Mostly Cloudy
4:15 AM 59.0 °F 23.0 °F 25% 29.94 in 10.0 mi WSW 5.8 mph - N/A   Overcast
4:35 AM 59.0 °F 23.0 °F 25% 29.94 in 10.0 mi West 4.6 mph - N/A   Scattered Clouds
4:55 AM 59.0 °F 23.0 °F 25% 29.94 in 10.0 mi West 3.5 mph - N/A   Mostly Cloudy
5:15 AM 59.0 °F 23.0 °F 25% 29.94 in 10.0 mi WSW 4.6 mph - N/A   Scattered Clouds
5:35 AM 59.0 °F 23.0 °F 25% 29.94 in 10.0 mi WSW 5.8 mph - N/A   Mostly Cloudy
5:55 AM 59.0 °F 23.0 °F 25% 29.95 in 10.0 mi SSW 5.8 mph - N/A   Scattered Clouds
6:15 AM 55.4 °F 23.0 °F 29% 29.96 in 10.0 mi SSW 4.6 mph - N/A   Clear
6:35 AM 53.6 °F 24.8 °F 33% 29.96 in 10.0 mi Calm Calm - N/A   Clear
6:55 AM 53.6 °F 24.8 °F 33% 29.96 in 10.0 mi WSW 3.5 mph - N/A   Clear
7:15 AM 53.6 °F 26.6 °F 35% 29.96 in 10.0 mi Calm Calm - N/A   Clear
7:35 AM 55.4 °F 23.0 °F 29% 29.96 in 10.0 mi SW 3.5 mph - N/A   Clear
7:55 AM 57.2 °F 23.0 °F 27% 29.96 in 10.0 mi SSW 3.5 mph - N/A   Clear
8:15 AM 59.0 °F 23.0 °F 25% 29.97 in 10.0 mi SSW 4.6 mph - N/A   Clear
8:35 AM 59.0 °F 23.0 °F 25% 29.97 in 10.0 mi SSW 3.5 mph - N/A   Clear
8:55 AM 60.8 °F 23.0 °F 23% 29.96 in 10.0 mi South 10.4 mph - N/A   Clear
9:15 AM 62.6 °F 23.0 °F 22% 29.96 in 10.0 mi South 10.4 mph - N/A   Clear
9:35 AM 64.4 °F 23.0 °F 21% 29.96 in 10.0 mi South 12.7 mph 18.4 mph N/A   Clear
9:55 AM 64.4 °F 23.0 °F 21% 29.96 in 10.0 mi SSE 10.4 mph 19.6 mph N/A   Clear
10:15 AM 66.2 °F 21.2 °F 18% 29.96 in 10.0 mi South 12.7 mph 19.6 mph N/A   Clear
10:35 AM 68.0 °F 21.2 °F 17% 29.95 in 10.0 mi SSW 9.2 mph 20.7 mph N/A   Scattered Clouds
10:55 AM 68.0 °F 21.2 °F 17% 29.95 in 10.0 mi SW 11.5 mph 21.9 mph N/A   Mostly Cloudy
11:15 AM 68.0 °F 23.0 °F 18% 29.96 in 10.0 mi SW 6.9 mph - N/A   Unknown
11:35 AM 66.2 °F 23.0 °F 19% 29.96 in 10.0 mi SW 11.5 mph 18.4 mph N/A   Mostly Cloudy
11:55 AM 68.0 °F 19.4 °F 16% 29.96 in 10.0 mi WSW 9.2 mph 17.3 mph N/A   Mostly Cloudy
12:15 PM 69.8 °F 19.4 °F 15% 29.95 in 10.0 mi SSW 12.7 mph 20.7 mph N/A   Scattered Clouds
12:35 PM 68.0 °F 19.4 °F 16% 29.94 in 10.0 mi SW 15.0 mph 19.6 mph N/A   Scattered Clouds
12:55 PM 69.8 °F 21.2 °F 16% 29.94 in 10.0 mi South 17.3 mph 24.2 mph N/A   Scattered Clouds
1:15 PM 69.8 °F 21.2 °F 16% 29.94 in 10.0 mi SSW 11.5 mph 24.2 mph N/A   Mostly Cloudy
1:35 PM 68.0 °F 19.4 °F 16% 29.93 in 10.0 mi SW 11.5 mph 18.4 mph N/A   Mostly Cloudy
1:55 PM 68.0 °F 19.4 °F 16% 29.92 in 10.0 mi South 10.4 mph 28.8 mph N/A   Mostly Cloudy
2:15 PM 69.8 °F 19.4 °F 15% 29.92 in 10.0 mi SSW 9.2 mph 21.9 mph N/A   Scattered Clouds
2:35 PM 69.8 °F 19.4 °F 15% 29.91 in 10.0 mi South 21.9 mph 29.9 mph N/A   Scattered Clouds
2:55 PM 69.8 °F 19.4 °F 15% 29.91 in 10.0 mi South 18.4 mph 26.5 mph N/A   Scattered Clouds
3:15 PM 68.0 °F 21.2 °F 17% 29.92 in 10.0 mi SSW 11.5 mph 35.7 mph N/A   Mostly Cloudy
3:35 PM 69.8 °F 21.2 °F 16% 29.92 in 10.0 mi SSW 15.0 mph 23.0 mph N/A   Mostly Cloudy
3:55 PM 68.0 °F 21.2 °F 17% 29.92 in 10.0 mi WSW 18.4 mph 29.9 mph N/A   Scattered Clouds
4:15 PM 68.0 °F 19.4 °F 16% 29.92 in 10.0 mi SW 15.0 mph 20.7 mph N/A   Scattered Clouds
4:35 PM 68.0 °F 21.2 °F 17% 29.91 in 10.0 mi SW 10.4 mph 23.0 mph N/A   Clear
4:55 PM 69.8 °F 19.4 °F 15% 29.91 in 10.0 mi SSW 12.7 mph 20.7 mph N/A   Clear
5:15 PM 69.8 °F 19.4 °F 15% 29.90 in 10.0 mi SSW 10.4 mph 20.7 mph N/A   Clear
5:35 PM 69.8 °F 19.4 °F 15% 29.91 in 10.0 mi SSW 10.4 mph 25.3 mph N/A   Scattered Clouds
5:55 PM 69.8 °F 17.6 °F 14% 29.90 in 10.0 mi WSW 17.3 mph 21.9 mph N/A   Mostly Cloudy
6:15 PM 68.0 °F 19.4 °F 16% 29.90 in 10.0 mi WSW 15.0 mph 21.9 mph N/A   Overcast
6:35 PM 68.0 °F 19.4 °F 16% 29.91 in 10.0 mi SW 11.5 mph 18.4 mph N/A   Mostly Cloudy
6:55 PM 68.0 °F 19.4 °F 16% 29.91 in 10.0 mi SW 12.7 mph 20.7 mph N/A   Overcast
7:15 PM 66.2 °F 21.2 °F 18% 29.91 in 10.0 mi SSW 10.4 mph 24.2 mph N/A   Overcast
7:35 PM 66.2 °F 21.2 °F 18% 29.91 in 10.0 mi SW 15.0 mph 27.6 mph N/A   Overcast
7:55 PM 64.4 °F 23.0 °F 21% 29.92 in 10.0 mi SW 16.1 mph 24.2 mph N/A   Overcast
8:15 PM 64.4 °F 24.8 °F 22% 29.92 in 10.0 mi WSW 16.1 mph 24.2 mph N/A   Overcast
8:35 PM 62.6 °F 24.8 °F 24% 29.93 in 10.0 mi WSW 18.4 mph 21.9 mph N/A   Overcast
8:55 PM 62.6 °F 26.6 °F 26% 29.94 in 10.0 mi WSW 16.1 mph 24.2 mph N/A   Mostly Cloudy
9:15 PM 60.8 °F 28.4 °F 29% 29.94 in 10.0 mi SW 17.3 mph 27.6 mph N/A   Scattered Clouds
9:35 PM 60.8 °F 28.4 °F 29% 29.96 in 10.0 mi WSW 18.4 mph 26.5 mph N/A   Mostly Cloudy
9:55 PM 59.0 °F 30.2 °F 34% 29.97 in 10.0 mi WSW 24.2 mph 28.8 mph N/A   Mostly Cloudy
10:15 PM 57.2 °F 32.0 °F 38% 29.98 in 10.0 mi WSW 18.4 mph 35.7 mph N/A   Mostly Cloudy
10:35 PM 57.2 °F 32.0 °F 38% 29.98 in 10.0 mi WSW 19.6 mph 28.8 mph N/A   Mostly Cloudy
10:55 PM 55.4 °F 32.0 °F 41% 29.98 in 10.0 mi West 18.4 mph 34.5 mph N/A   Overcast
11:15 PM 53.6 °F 33.8 °F 47% 29.98 in 10.0 mi WSW 19.6 mph 33.4 mph N/A   Mostly Cloudy
11:35 PM 53.6 °F 33.8 °F 47% 29.98 in 10.0 mi WSW 18.4 mph 33.4 mph N/A   Overcast
11:55 PM 53.6 °F 33.8 °F 47% 29.98 in 10.0 mi WSW 12.7 mph 26.5 mph N/A   Overcast